• En España
  • Lista de países
  • Para 7 días
  • Temperatura del agua
  • Mapa Satelital
  • El tiempo en el mapa
  • Informadores
  • user-avatar
    Iniciar sesión

    Tiempo cada hora Elizavetino

    Hoy, 21 Agosto, Martes

    Tiempo Temperatura Precipitaciones Viento Presión Humedad
    00:00 +18°C° 0 mm 3 mps 740 mmHg 77%
    01:00 +18°C° 0 mm 3 mps 740 mmHg 79%
    02:00 +18°C° 0 mm 3 mps 740 mmHg 80%
    03:00 +18°C° 0 mm 3 mps 740 mmHg 82%
    04:00 +18°C° 0 mm 3 mps 739 mmHg 83%
    05:00 +18°C° 0 mm 3 mps 739 mmHg 83%
    06:00 +17°C° 0 mm 3 mps 739 mmHg 84%
    07:00 +19°C° 0 mm 4 mps 739 mmHg 78%
    08:00 +21°C° 0 mm 5 mps 738 mmHg 72%
    09:00 +23°C° 0 mm 6 mps 738 mmHg 64%
    10:00 +24°C° 0 mm 7 mps 738 mmHg 60%
    11:00 +26°C° 0 mm 7 mps 738 mmHg 57%
    12:00 +27°C° 0 mm 8 mps 737 mmHg 53%
    13:00 +27°C° 0,4 mm 8 mps 737 mmHg 55%
    14:00 +27°C° 0,4 mm 8 mps 736 mmHg 56%
    15:00 +27°C° 0,4 mm 8 mps 736 mmHg 58%
    16:00 +26°C° 1,2 mm 7 mps 736 mmHg 64%
    17:00 +24°C° 1,2 mm 7 mps 736 mmHg 70%
    18:00 +22°C° 1,2 mm 6 mps 735 mmHg 76%
    19:00 +21°C° 0,7 mm 5 mps 736 mmHg 80%
    20:00 +20°C° 0,7 mm 5 mps 736 mmHg 85%
    21:00 +18°C° 0,7 mm 4 mps 736 mmHg 89%
    22:00 +17°C° 0 mm 4 mps 737 mmHg 88%
    23:00 +16°C° 0 mm 3 mps 737 mmHg 88%

    Mañana, 22 Agosto, Miércoles

    Tiempo Temperatura Precipitaciones Viento Presión Humedad
    00:00 +16°C° 0 mm 3 mps 737 mmHg 88%
    01:00 +14°C° 0 mm 3 mps 738 mmHg 87%
    02:00 +13°C° 0 mm 3 mps 738 mmHg 87%
    03:00 +12°C° 0 mm 3 mps 738 mmHg 87%
    04:00 +12°C° 0 mm 3 mps 739 mmHg 87%
    05:00 +11°C° 0 mm 3 mps 739 mmHg 88%
    06:00 +11°C° 0 mm 3 mps 739 mmHg 88%
    07:00 +12°C° 0 mm 3 mps 740 mmHg 82%
    08:00 +14°C° 0 mm 4 mps 740 mmHg 75%
    09:00 +15°C° 0 mm 5 mps 740 mmHg 68%
    10:00 +16°C° 0 mm 5 mps 741 mmHg 63%
    11:00 +17°C° 0 mm 5 mps 741 mmHg 58%
    12:00 +19°C° 0 mm 6 mps 741 mmHg 53%
    13:00 +19°C° 0 mm 6 mps 741 mmHg 52%
    14:00 +19°C° 0 mm 6 mps 742 mmHg 51%
    15:00 +20°C° 0 mm 6 mps 742 mmHg 50%
    16:00 +19°C° 0 mm 5 mps 742 mmHg 53%
    17:00 +19°C° 0 mm 4 mps 742 mmHg 57%
    18:00 +18°C° 0 mm 3 mps 743 mmHg 61%
    19:00 +17°C° 0 mm 3 mps 743 mmHg 64%
    20:00 +14°C° 0 mm 3 mps 743 mmHg 67%
    21:00 +13°C° 0 mm 3 mps 744 mmHg 70%
    22:00 +12°C° 0 mm 3 mps 744 mmHg 71%
    23:00 +12°C° 0 mm 3 mps 745 mmHg 73%

    Pasado mañana, 23 Agosto, Jueves

    Tiempo Temperatura Precipitaciones Viento Presión Humedad
    00:00 +12°C° 0 mm 2 mps 745 mmHg 74%
    01:00 +12°C° 0 mm 2 mps 745 mmHg 75%
    02:00 +10°C° 0 mm 2 mps 746 mmHg 76%
    03:00 +10°C° 0 mm 2 mps 746 mmHg 77%
    04:00 +9°C° 0 mm 2 mps 746 mmHg 79%
    05:00 +9°C° 0 mm 2 mps 746 mmHg 80%
    06:00 +9°C° 0 mm 2 mps 746 mmHg 81%
    07:00 +12°C° 0 mm 2 mps 747 mmHg 75%
    08:00 +13°C° 0 mm 2 mps 747 mmHg 69%
    09:00 +15°C° 0 mm 2 mps 747 mmHg 63%
    10:00 +16°C° 0 mm 2 mps 747 mmHg 58%
    11:00 +17°C° 0 mm 2 mps 747 mmHg 53%
    12:00 +19°C° 0 mm 2 mps 747 mmHg 48%
    13:00 +19°C° 0 mm 2 mps 747 mmHg 47%
    14:00 +19°C° 0 mm 2 mps 747 mmHg 45%
    15:00 +21°C° 0 mm 1 mps 747 mmHg 44%
    16:00 +21°C° 0 mm 1 mps 746 mmHg 47%
    17:00 +21°C° 0 mm 1 mps 746 mmHg 51%
    18:00 +20°C° 0 mm 1 mps 746 mmHg 54%
    19:00 +19°C° 0 mm 1 mps 746 mmHg 57%
    20:00 +15°C° 0 mm 0 mps 746 mmHg 60%
    21:00 +13°C° 0 mm 0 mps 746 mmHg 63%
    22:00 +13°C° 0 mm 0 mps 746 mmHg 64%
    23:00 +14°C° 0 mm 1 mps 746 mmHg 65%

    24 Agosto, Viernes

    Tiempo Temperatura Precipitaciones Viento Presión Humedad
    00:00 +13°C° 0 mm 1 mps 747 mmHg 66%
    01:00 +13°C° 0 mm 1 mps 747 mmHg 67%
    02:00 +13°C° 0 mm 1 mps 747 mmHg 69%
    03:00 +12°C° 0 mm 1 mps 747 mmHg 70%
    04:00 +12°C° 0 mm 1 mps 747 mmHg 71%
    05:00 +12°C° 0 mm 1 mps 746 mmHg 72%
    06:00 +12°C° 0 mm 1 mps 746 mmHg 74%
    07:00 +14°C° 0 mm 1 mps 746 mmHg 69%
    08:00 +15°C° 0 mm 1 mps 746 mmHg 64%
    09:00 +17°C° 0 mm 2 mps 746 mmHg 58%
    10:00 +19°C° 0 mm 2 mps 746 mmHg 55%
    11:00 +20°C° 0 mm 2 mps 746 mmHg 51%
    12:00 +21°C° 0 mm 2 mps 746 mmHg 47%
    13:00 +21°C° 0 mm 2 mps 746 mmHg 46%
    14:00 +23°C° 0 mm 2 mps 745 mmHg 44%
    15:00 +23°C° 0 mm 2 mps 745 mmHg 43%
    16:00 +23°C° 0 mm 2 mps 745 mmHg 46%
    17:00 +23°C° 0 mm 1 mps 745 mmHg 50%
    18:00 +22°C° 0 mm 1 mps 744 mmHg 53%
    19:00 +21°C° 0 mm 1 mps 744 mmHg 55%
    20:00 +19°C° 0 mm 1 mps 744 mmHg 58%
    21:00 +16°C° 0 mm 1 mps 744 mmHg 60%
    22:00 +16°C° 0 mm 1 mps 744 mmHg 61%
    23:00 +15°C° 0 mm 2 mps 745 mmHg 63%

    25 Agosto, Sábado

    Tiempo Temperatura Precipitaciones Viento Presión Humedad
    00:00 +15°C° 0 mm 2 mps 745 mmHg 64%
    01:00 +15°C° 0 mm 2 mps 744 mmHg 65%
    02:00 +14°C° 0 mm 2 mps 744 mmHg 66%
    03:00 +14°C° 0 mm 2 mps 744 mmHg 67%
    04:00 +14°C° 0 mm 2 mps 744 mmHg 68%
    05:00 +13°C° 0 mm 2 mps 744 mmHg 69%
    06:00 +13°C° 0 mm 2 mps 744 mmHg 70%
    07:00 +15°C° 0 mm 2 mps 744 mmHg 67%
    08:00 +17°C° 0 mm 2 mps 745 mmHg 63%
    09:00 +19°C° 0 mm 3 mps 745 mmHg 59%
    10:00 +20°C° 0 mm 3 mps 745 mmHg 54%
    11:00 +22°C° 0 mm 3 mps 745 mmHg 50%
    12:00 +23°C° 0 mm 4 mps 745 mmHg 45%
    13:00 +25°C° 0 mm 4 mps 744 mmHg 45%
    14:00 +25°C° 0 mm 4 mps 744 mmHg 44%
    15:00 +25°C° 0 mm 4 mps 744 mmHg 44%
    16:00 +25°C° 0 mm 3 mps 744 mmHg 48%
    17:00 +24°C° 0 mm 3 mps 743 mmHg 52%
    18:00 +24°C° 0 mm 2 mps 743 mmHg 56%
    19:00 +21°C° 0 mm 2 mps 743 mmHg 58%
    20:00 +19°C° 0 mm 2 mps 743 mmHg 60%
    21:00 +18°C° 0 mm 2 mps 743 mmHg 62%
    22:00 +17°C° 0 mm 3 mps 743 mmHg 62%
    23:00 +17°C° 0 mm 3 mps 743 mmHg 62%

    26 Agosto, Domingo

    Tiempo Temperatura Precipitaciones Viento Presión Humedad
    00:00 +16°C° 0 mm 3 mps 743 mmHg 61%
    01:00 +16°C° 0 mm 3 mps 743 mmHg 62%
    02:00 +14°C° 0 mm 3 mps 743 mmHg 62%
    03:00 +14°C° 0 mm 3 mps 744 mmHg 62%
    04:00 +14°C° 0 mm 3 mps 744 mmHg 64%
    05:00 +13°C° 0 mm 3 mps 744 mmHg 65%
    06:00 +13°C° 0 mm 3 mps 744 mmHg 66%
    07:00 +16°C° 0 mm 3 mps 744 mmHg 64%
    08:00 +18°C° 0 mm 3 mps 744 mmHg 61%
    09:00 +20°C° 0 mm 3 mps 744 mmHg 59%
    10:00 +21°C° 0 mm 4 mps 744 mmHg 54%
    11:00 +23°C° 0 mm 4 mps 744 mmHg 49%
    12:00 +26°C° 0 mm 4 mps 744 mmHg 43%
    13:00 +26°C° 0 mm 4 mps 744 mmHg 42%
    14:00 +26°C° 0 mm 4 mps 744 mmHg 42%
    15:00 +27°C° 0 mm 4 mps 744 mmHg 41%
    16:00 +26°C° 0 mm 3 mps 743 mmHg 46%
    17:00 +25°C° 0 mm 3 mps 743 mmHg 50%
    18:00 +25°C° 0 mm 2 mps 743 mmHg 55%
    19:00 +22°C° 0 mm 3 mps 743 mmHg 58%
    20:00 +21°C° 0 mm 3 mps 743 mmHg 61%
    21:00 +19°C° 0 mm 3 mps 743 mmHg 64%
    22:00 +19°C° 0 mm 3 mps 743 mmHg 64%
    23:00 +18°C° 0 mm 3 mps 743 mmHg 65%
    Mostrar más